Home   Weather   Corfu   Past weeks

Flag for Greece Past Weather in Corfu, Greece — Yesterday and Last 2 Weeks

Now
61 °F

Passing clouds.


Feels Like: 61 °F
Forecast: 65 / 78 °F
Wind: 3 mph from Northwest

Location: Kerkyra Airport

Current Time: Sep 25, 2016 at 6:43:51 AM

Latest Report: Sep 25, 2016 at 5:50 AM


Visibility: N/A

Pressure: 30.09 "Hg

Humidity: 94%

Dew Point: 59 °F

Location of CorfuLocation

Past Weather in Corfu — Graph

°F

Corfu Temperature Yesterday

Maximum temperature yesterday: 77 °F (at 1:50 PM)
Minimum temperature yesterday: 59 °F (at 4:20 AM)
Average temperature yesterday: 67 °F

High & Low Weather Summary for the Past Weeks

 TemperatureHumidityPressure
High84 °F (Sep 12, 3:20 PM)100% (Sep 13, 6:50 AM)30.21 "Hg (Sep 13, 6:50 AM)
Low59 °F (Sep 23, 7:20 AM)45% (Sep 23, 3:50 PM)29.71 "Hg (Sep 19, 8:50 PM)
Average73 °F80%29.96 "Hg
* Reported Sep 10 5:20 AM — Sep 25 5:20 AM, Corfu, Weather by CustomWeather, © 2016

Note: Actual official high and low records may vary slightly from our data, if they occured in-between our weather recording intervals... More about our weather records

Advertising

Corfu Weather History for the Previous 24 Hours

Scroll right to see more
 ConditionsComfort  
Time TempWeatherWind HumidityBarometerVisibility
5:20 AM
Sun, Sep 25
61 °FPassing clouds.5 mph94%30.09 "HgN/A
4:50 AM61 °FPassing clouds.5 mph94%30.09 "HgN/A
4:20 AM61 °FPassing clouds.3 mph94%30.09 "HgN/A
3:50 AM61 °FPassing clouds.3 mph94%30.09 "HgN/A
3:20 AM63 °FPassing clouds.3 mph88%30.12 "HgN/A
2:50 AM63 °FPassing clouds.3 mph88%30.12 "HgN/A
2:20 AM63 °FPassing clouds.3 mph88%30.15 "HgN/A
1:50 AM63 °FPassing clouds.3 mph88%30.15 "HgN/A
1:20 AM64 °FPassing clouds.3 mph88%30.15 "HgN/A
12:50 AM64 °FPassing clouds.3 mph88%30.15 "HgN/A
12:20 AM66 °FPassing clouds.3 mph83%30.15 "HgN/A
11:50 PM
Sat, Sep 24
66 °FPassing clouds.3 mph83%30.15 "HgN/A
11:20 PM66 °FPassing clouds.3 mph83%30.15 "HgN/A
10:50 PM66 °FPassing clouds.No wind83%30.15 "HgN/A
10:20 PM68 °FPassing clouds.No wind78%30.15 "HgN/A
9:50 PM68 °FPassing clouds.No wind78%30.15 "HgN/A
9:20 PM72 °FPassing clouds.No wind73%30.15 "HgN/A
8:50 PM72 °FPassing clouds.2 mph73%30.15 "HgN/A
8:20 PM72 °FPassing clouds.3 mph73%30.15 "HgN/A
7:50 PM72 °FPassing clouds.2 mph73%30.15 "HgN/A
6:50 PM75 °FPassing clouds.6 mph61%30.15 "HgN/A
6:20 PM77 °FPassing clouds.7 mph57%30.15 "HgN/A
5:50 PM77 °FPassing clouds.6 mph57%30.15 "HgN/A
5:20 PM75 °FScattered clouds.5 mph57%30.15 "HgN/A
4:50 PM77 °FScattered clouds.5 mph54%30.15 "HgN/A
4:20 PM77 °FScattered clouds.5 mph51%30.15 "HgN/A
3:50 PM77 °FScattered clouds.5 mph51%30.15 "HgN/A
3:20 PM77 °FScattered clouds.5 mph54%30.18 "HgN/A
2:50 PM77 °FScattered clouds.5 mph54%30.18 "HgN/A
2:20 PM77 °FScattered clouds.5 mph54%30.21 "HgN/A
1:50 PM77 °FScattered clouds.5 mph54%30.21 "HgN/A
1:20 PM75 °FScattered clouds.5 mph61%30.21 "HgN/A
12:50 PM75 °FScattered clouds.5 mph61%30.21 "HgN/A
12:20 PM75 °FScattered clouds.5 mph61%30.21 "HgN/A
11:50 AM72 °FScattered clouds.6 mph65%30.21 "HgN/A
11:20 AM66 °FScattered clouds.5 mph78%30.21 "HgN/A
10:50 AM66 °FScattered clouds.2 mph78%30.21 "HgN/A
10:20 AM63 °FBroken clouds.3 mph88%30.21 "HgN/A
9:50 AM63 °FScattered clouds.3 mph88%30.21 "HgN/A
9:20 AM61 °FScattered clouds.No wind94%30.18 "HgN/A
8:50 AM61 °FScattered clouds.3 mph94%30.18 "HgN/A
8:20 AM59 °FScattered clouds.3 mph94%30.18 "HgN/A
7:50 AM59 °FScattered clouds.3 mph94%30.18 "HgN/A
7:20 AM59 °FClear.No wind94%30.18 "Hg10 mi
6:50 AM59 °FClear.3 mph94%30.18 "Hg10 mi
6:20 AM59 °FClear.2 mph94%30.18 "Hg10 mi
Weather by CustomWeather, © 2016

See weather overviewHow to use our weather pages